TimeEST,TemperatureF,Dew PointF,Humidity,Sea Level PressureIn,VisibilityMPH,Wind Direction,Wind SpeedMPH,Gust SpeedMPH,PrecipitationIn,Events,Conditions,WindDirDegrees,DateUTC
12:53 AM,73.0,69.1,87,30.12,10.0,ENE,3.5,-,N/A,,Clear,70,2013-01-04 05:53:00
1:53 AM,73.9,70.0,87,30.11,10.0,East,3.5,-,N/A,,Clear,90,2013-01-04 06:53:00
3:53 AM,72.0,68.0,87,30.12,10.0,ENE,3.5,-,N/A,,Clear,70,2013-01-04 08:53:00
4:53 AM,73.0,70.0,90,30.11,10.0,ESE,3.5,-,N/A,,Clear,110,2013-01-04 09:53:00
5:53 AM,73.0,69.1,87,30.12,10.0,East,3.5,-,N/A,,Clear,90,2013-01-04 10:53:00
6:53 AM,73.0,69.1,87,30.13,10.0,Calm,Calm,-,N/A,,Partly Cloudy,0,2013-01-04 11:53:00
8:53 AM,75.9,71.1,85,30.18,10.0,Calm,Calm,-,N/A,,Mostly Cloudy,0,2013-01-04 13:53:00
9:30 AM,78.8,69.8,74,30.19,10.0,Calm,Calm,-,N/A,,Scattered Clouds,0,2013-01-04 14:30:00
9:40 AM,78.8,69.8,74,30.19,10.0,ESE,3.5,-,N/A,,Mostly Cloudy,120,2013-01-04 14:40:00
9:53 AM,80.1,70.0,71,30.19,10.0,SE,3.5,-,N/A,,Overcast,140,2013-01-04 14:53:00
10:13 AM,80.6,69.8,70,30.19,10.0,Variable,3.5,-,N/A,,Mostly Cloudy,0,2013-01-04 15:13:00
10:53 AM,82.0,69.1,65,30.19,10.0,Variable,3.5,-,N/A,,Partly Cloudy,0,2013-01-04 15:53:00
11:53 AM,82.9,69.1,63,30.17,10.0,SE,3.5,-,N/A,,Clear,130,2013-01-04 16:53:00
12:32 PM,78.8,69.8,74,30.16,9.0,SE,4.6,-,0.00,Rain,Light Rain,140,2013-01-04 17:32:00
12:41 PM,77.0,69.8,78,30.15,2.5,SE,8.1,-,0.03,Rain,Rain,130,2013-01-04 17:41:00
12:48 PM,75.2,69.8,83,30.15,1.5,Calm,Calm,-,0.06,Rain,Rain,0,2013-01-04 17:48:00
12:53 PM,75.9,71.1,85,30.15,2.5,Calm,Calm,-,0.06,Rain,Light Rain,0,2013-01-04 17:53:00
1:00 PM,77.0,71.6,83,30.15,6.0,Calm,Calm,-,0.00,Rain,Light Rain,0,2013-01-04 18:00:00
1:53 PM,75.0,69.1,82,30.13,3.0,ENE,6.9,-,0.01,Rain,Rain,60,2013-01-04 18:53:00
2:53 PM,78.1,70.0,76,30.12,10.0,NE,8.1,-,0.00,,Mostly Cloudy,40,2013-01-04 19:53:00
3:53 PM,79.0,69.1,72,30.13,10.0,ENE,6.9,-,N/A,,Clear,60,2013-01-04 20:53:00
4:53 PM,78.1,69.1,74,30.14,10.0,East,4.6,-,N/A,,Partly Cloudy,80,2013-01-04 21:53:00
5:53 PM,77.0,69.1,76,30.15,10.0,ENE,5.8,-,N/A,,Scattered Clouds,60,2013-01-04 22:53:00
6:53 PM,75.9,69.1,79,30.17,10.0,ENE,3.5,-,N/A,,Clear,60,2013-01-04 23:53:00
7:53 PM,73.9,70.0,87,30.20,10.0,NE,3.5,-,N/A,,Clear,40,2013-01-05 00:53:00
8:53 PM,73.9,70.0,87,30.21,10.0,ENE,3.5,-,N/A,,Clear,60,2013-01-05 01:53:00
9:53 PM,73.9,70.0,87,30.21,10.0,NE,3.5,-,N/A,,Clear,50,2013-01-05 02:53:00
10:53 PM,73.0,69.1,87,30.21,10.0,Calm,Calm,-,N/A,,Clear,0,2013-01-05 03:53:00
11:00 PM,73.4,69.8,88,30.21,10.0,Calm,Calm,-,N/A,,Partly Cloudy,0,2013-01-05 04:00:00
11:53 PM,72.0,68.0,87,30.21,10.0,North,5.8,-,N/A,,Partly Cloudy,350,2013-01-05 04:53:00